Location: Hartha
(51.1030°N, 12.9600°E)
Time: 12:36:38
(UTC+02:00)

ISS - Pass Details

Date: 10 July 2022
Orbit: 412 x 420 km, 51.6° (Epoch: 17 August)

Event Time Altitude Azimuth Distance (km) Brightness Sun altitude
Exits shadow 00:54:24 46° 187° (S) 575 -3.6 -16.5°
Maximum altitude 00:54:52 50° 156° (SSE) 540 -3.6 -16.5°
Drops below altitude 10° 00:58:08 10° 80° (E) 1,500 -0.9 -16.6°
Sets 01:00:16 0° 75° (ENE) 2,368 0.2 -16.6°
